THORAD AGENA D DEB, 5692

Orbit data source: Space-Track

THORAD AGENA D DEB, 5692 is space debris in SSO originally from a launch on Wed, 08 Apr 1970 UTC launched from the Air Force Western Test Range (AFWTR). Debris objects in space refer to the collection of defunct objects orbiting the Earth. Examples of debris include non-operational satellites, rocket bodies, and fragments generated from explosions, collisions, or faulty payload assembly.

Loading next visibility...
Identifier
5692, 1970-025LX
Orbit
SSO
Country
Flag of USUS
Related business
Manufacturer
Unknown
Mission
Spacecraft
Bus & Motor
Unknown
Mass
Unknown
Launch date (UTC)
1970-04-08 (56 years ago)
Launch vehicle
Unknown
Launch site
Air Force Western Test Range (AFWTR)
Object type
Payload
Rocket body
Debris
Shape & HBR
Unknown shape, 0.1 m
Radar Cross Section
Small (<0.1 m²)

Expand to show TLE details & history
Last TLE update: 10 hours ago

TLE from 10 hours ago
0 THORAD AGENA D DEB
1  5692U 70025LX  25300.05073736  .00000357  00000-0  56325-3 0  9996
2  5692  99.4152 333.0391 0113766 225.5797 163.0966 13.54184176532828
Epoch: 2025-10-27T01:13Z
TLE epoch observation values (Epoch: 2025-10-27T01:13:03.707Z)
Latitude
28.66647°
Longitude
-86.05946°
Altitude
1,141.376 km
Speed
7.245 km/s
True Right ascension
21h 51m 27s
True Declination
28° 31' 46"
Sunlit
Object was in daylight at epoch
Visualization orbit readout
Latitude
Unknown
Longitude
Unknown
Altitude
Unknown
Speed
Unknown
Apparent Right ascension
Unknown
Apparent Declination
Unknown
Sunlit
N/A
Visualization observer readout
Local Sidereal Time
06:10:14
Azimuth
Unknown
Elevation
Unknown
Doppler factor
Unknown
Orbital elements
Apogee altitude
1,138.739 km
Perigee altitude
969.63 km
Semi-major axis
7,432.322 km
Eccentricity
0.01138
Inclination
99.4152°
RAAN
333.0391°
Arg. of periapsis
225.5797°
True anomaly
163.47056°
Mean anomaly
163.0966°
Eccentric anomaly
163.28408°
Mean motion
3.38732 °/min
Orbital period
106.28 mins
BSTAR
0.00056325
Loading maneuver chart data...
Computing Atmospheric mass density...

Documentation

Showing up to 5 results
|